Back to catalog

STARLINK-11311

AliveCommunicationsVLEO
NORAD 61253·PAYLOAD·🇺🇸 United States

Launched Sep 25, 2024 from Vandenberg Space Force Base

Loading…

Next Passes (next 24 hours)

TLE

FreshSource: CelesTrak SupGP

Epoch: Sep 14, 2026, 14:52 UTC

1 61253C 24175L   26257.61993056 -.00007518  00000+0 -61961-4 0  2573
2 61253  53.1573 205.0951 0001249  95.6622  43.4494 15.69701695    19

Track STARLINK-11311 in real time with AllMySat

Download on the App Store